Regional Weather Roundup
Issued by NWS

Home | Current Version | Previous Version | Text Only | Print | Product List | Glossary Off
Versions: 1 2 3 4 5 6 7 8 9 10 11 12 13 14 15 16 17 18 19 20 21 22 23 24 25 26 27 28 29 30 31 32 33 34 35 36 37 38 39 40 41 42 43 44 45 46 47 48 49 50

000
ASUS43 KOAX 221002
RWRNE

WEATHER ROUNDUP FOR NEBRASKA
NATIONAL WEATHER SERVICE OMAHA NE
500 AM CDT TUE MAY 22 2018

NOTES: SATELLITE DATA IS BEING USED TO AUGMENT CLOUD COVER ABOVE
       12000 FEET.
       "FAIR" INDICATES FEW OR NO CLOUDS BELOW 12,000 FEET WITH NO
       SIGNIFICANT WEATHER AND/OR OBSTRUCTIONS TO VISIBILITY.


NEZ001>004-019>022-054>056-221100-
NEBRASKA PANHANDLE

CITY           SKY/WX    TMP DP  RH WIND       PRES   REMARKS
SCOTTSBLUFF    PTCLDY    54  54 100 NE7       29.94S
ALLIANCE       CLEAR     48  48 100 N6        29.94F
CHADRON        CLEAR     50  49  96 CALM      29.92R
GORDON         FAIR      48  47  95 S7        29.94S
KIMBALL        PTCLDY    52  51  96 NE5       29.98R
SIDNEY         PTCLDY    52  51  97 VRB3      29.96R FOG
$$

NEZ057>060-069>072-079>082-221100-
SOUTHWEST NEBRASKA

CITY           SKY/WX    TMP DP  RH WIND       PRES   REMARKS
NORTH PLATTE   CLEAR     56  55  97 SE6       29.91R FOG
IMPERIAL       PTCLDY    54  51  90 SW6       29.92R
LEXINGTON      PTCLDY    62  59  91 SE7       29.92R
MCCOOK         MOCLDY    60  57  89 SW8       29.90R
OGALLALA       CLEAR     56  55  97 CALM      29.92R FOG
$$

NEZ005>010-023>029-035>040-094-221100-
NORTH CENTRAL NEBRASKA

CITY           SKY/WX    TMP DP  RH WIND       PRES   REMARKS
VALENTINE      CLEAR     57  55  93 NE5       29.92F
AINSWORTH      PTCLDY    58  56  95 SE3       29.93S
BROKEN BOW     CLEAR     59  57  93 SE8       29.91F
O`NEILL        MOCLDY    65  58  79 SE8       29.93F
ORD            CLEAR     61  57  87 SE6       29.91F
THEDFORD       FOG       55  55  97 CALM      29.94R VSB 1/4
$$

NEZ041-046>049-061>064-073>077-083>087-221100-
SOUTH CENTRAL NEBRASKA

CITY           SKY/WX    TMP DP  RH WIND       PRES   REMARKS
GRAND ISLAND   PTCLDY    63  58  83 SE13G21   29.94F
AURORA         PTCLDY    62  59  91 SE8       29.96S
HASTINGS       CLOUDY    63  58  83 S13       29.94F
HEBRON         MOCLDY    65  60  84 S8        29.97S
HOLDREGE       CLOUDY    62  59  92 S14       29.91F
KEARNEY        CLOUDY    62  58  86 S15       29.92S
YORK           MOCLDY    64  64 100 S13       29.97R
$$

NEZ011>018-030>034-042>045-221100-
NORTHEAST NEBRASKA

CITY           SKY/WX    TMP DP  RH WIND       PRES   REMARKS
NORFOLK        CLOUDY    61  57  87 E7        29.95F
ALBION         PTCLDY    61  58  88 SE7       29.95F
BLAIR          CLOUDY    62  56  83 SE3       29.98S
COLUMBUS       PTCLDY    63  57  81 E7        29.96F
FREMONT        CLOUDY    62  57  83 E3        29.98S
TEKAMAH        CLOUDY    59  57  93 NE3       29.98S
WAYNE          CLOUDY    59  58  97 CALM      29.98R
$$

NEZ050>053-065>068-078-088>093-221100-
SOUTHEAST NEBRASKA

CITY           SKY/WX    TMP DP  RH WIND       PRES   REMARKS
LINCOLN        CLOUDY    60  56  86 S6        29.97F
OMAHA EPPLEY   CLOUDY    61  56  83 SE6       29.98S
BEATRICE       PTCLDY    65  61  86 S5        29.99R
FALLS CITY     CLOUDY    62  58  86 S8        29.98S
NEBRASKA CITY  MOCLDY    60  60 100 S6        29.99S
PLATTSMOUTH    CLOUDY    60  58  93 SE6       29.99S
$$

NEZ044-045-051>053-067-221100-
OMAHA AREA

CITY           SKY/WX    TMP DP  RH WIND       PRES   REMARKS
OMAHA EPPLEY   CLOUDY    61  56  83 SE6       29.98S
BLAIR          CLOUDY    62  56  83 SE3       29.98S
FREMONT        CLOUDY    62  57  83 E3        29.98S
MILLARD        CLOUDY    60  57  89 CALM      29.98S
OFFUTT AFB     CLOUDY    58  56  94 CALM      29.97S
PLATTSMOUTH    CLOUDY    60  58  93 SE6       29.99S
WAHOO          FAIR      59  55  85 S5        29.97S
$$




USA.gov is the U.S. government's official web portal to all federal, state and local government web resources and services.